HISPASAT 36W-1

Last updated on Sun Jun 21 2026 00:03:07 GMT+0000 (Coordinated Universal Time)

1 41942U 17006A 26171.17097696 -.00000249 00000+0 00000+0 0 9990 2 41942 0.0081 295.7233 0001103 144.3159 213.8941 1.00274209 34273
UTC large
Height (km)
Speed (km/s)
/
Latitude / Longitude
Inclination (degrees)
Orbital Period (minutes)
Azimuth
Elevation
Range (km)
Doppler Factor

Next 0 passes for location: London (51.5072 / 0.1276)

No passes found over London.
HISPASAT 36W-1